FALCON 9 R/B (43701 NORAD) Tracking and Keplerian Element Data

This shows tracking and keplerian element data for the satellite.

Feedback or suggestion? Click here.




ElementValue
Catalog43701
NameFALCON 9 R/B
Epoch Orbit50
Epoch Day343.09730614
Epoch Year2018
RAAN191.4288
Inclination24.9642
Eccentricity0.7390739
Argument of Perigee192.2882
Mean Anonmoly127.0445
Mean Motion2.17314474
Decay Rate0.00018876
L11 43701U 18090B 18343.09730614 .00018876 -76639-6 13075-2 0 9998
L22 43701 24.9642 191.4288 7390739 192.2882 127.0445 2.17314474 508

Live tracking and technical data element details for FALCON 9 R/B (NORAD 43701). FALCON 9 R/B can be tracked NOW for your location showing map with azimuth and elevation plus other details from your city location.

Track the satellite on the map from your city or location and see movement details for azimuth, elevation, latitude, longitude, range, height, and movement on the map or in text.







IsCatalogInMostPopularTable: catalog: 43701, numindb: 50
Update: records affected: 1



GetName: 43701 FALCON 9 R/B

Hit Count: updated at: Tue, 11 Dec 2018 03:14:13 GMT